RYR924 EINN-EPMO

Flight info

Callsign RYR924
Flight time 2h 44m
Altitude 35000
Route AGINI3B AGINI DCT LIFFY DCT DOLAS L603 LAMSO DCT AMSAN DCT POVEL DCT SUBIX DCT OBOKU DCT DOSIX
Aircraft B738/M-SDE2E3FGHIRWXY/LB1

Departure

Time 2026-04-26 10:50
Airport Shannon Airport (EINN)

Arrival

Time 2026-04-26 13:35
Airport Warsaw Modlin Airport (EPMO)
Time Latitude Longitude Altitude Speed Heading
2026-04-26 10:16 52.69374 -8.92176 42 ft 0 kts 186°
2026-04-26 10:38 52.69385 -8.92174 40 ft 2 kts 185°
2026-04-26 10:38 52.69402 -8.92172 41 ft 2 kts 185°
2026-04-26 10:39 52.69418 -8.92169 41 ft 2 kts 185°
2026-04-26 10:39 52.69435 -8.92167 41 ft 2 kts 183°
2026-04-26 10:39 52.69451 -8.92166 41 ft 2 kts 180°
2026-04-26 10:39 52.69468 -8.92167 41 ft 2 kts 171°
2026-04-26 10:40 52.69483 -8.92176 41 ft 2 kts 127°
2026-04-26 10:40 52.69488 -8.92189 41 ft 0 kts 106°
2026-04-26 10:44 52.69485 -8.92174 41 ft 3 kts 108°
2026-04-26 10:44 52.69475 -8.92119 41 ft 7 kts 104°
2026-04-26 10:44 52.69461 -8.92024 40 ft 10 kts 103°
2026-04-26 10:45 52.69440 -8.91889 37 ft 14 kts 107°
2026-04-26 10:45 52.69386 -8.91769 39 ft 13 kts 157°
2026-04-26 10:45 52.69304 -8.91699 39 ft 14 kts 134°
2026-04-26 10:45 52.69258 -8.91556 39 ft 13 kts 71°
2026-04-26 10:46 52.69320 -8.91492 38 ft 11 kts 17°
2026-04-26 10:46 52.69401 -8.91449 38 ft 14 kts 18°
2026-04-26 10:46 52.69499 -8.91395 37 ft 16 kts 19°
2026-04-26 10:46 52.69613 -8.91332 35 ft 18 kts 18°
2026-04-26 10:47 52.69742 -8.91260 33 ft 21 kts 19°
2026-04-26 10:47 52.69880 -8.91185 33 ft 21 kts 19°
2026-04-26 10:47 52.70024 -8.91104 31 ft 23 kts 18°
2026-04-26 10:47 52.70149 -8.91036 30 ft 18 kts 18°
2026-04-26 10:48 52.70271 -8.90967 29 ft 20 kts 18°
2026-04-26 10:48 52.70408 -8.90892 28 ft 22 kts 18°
2026-04-26 10:48 52.70556 -8.90811 26 ft 23 kts 18°
2026-04-26 10:48 52.70717 -8.90721 27 ft 25 kts 19°
2026-04-26 10:49 52.70866 -8.90676 23 ft 16 kts 343°
2026-04-26 10:49 52.70932 -8.90740 23 ft 12 kts 323°
2026-04-26 10:49 52.70965 -8.90846 23 ft 9 kts 246°
2026-04-26 10:49 52.70930 -8.90923 27 ft 14 kts 233°
2026-04-26 10:50 52.70710 -8.91391 27 ft 89 kts 232°
2026-04-26 10:50 52.70398 -8.92069 34 ft 133 kts 231°
2026-04-26 10:50 52.69515 -8.94020 533 ft 171 kts 234°
2026-04-26 10:50 52.68967 -8.95664 1647 ft 160 kts 261°
2026-04-26 10:51 52.69229 -8.97489 2364 ft 170 kts 295°
2026-04-26 10:51 52.70237 -9.01157 3740 ft 189 kts 291°
2026-04-26 10:51 52.70767 -9.03168 4480 ft 195 kts 291°
2026-04-26 10:52 52.71309 -9.05234 5243 ft 198 kts 291°
2026-04-26 10:52 52.71882 -9.07325 5958 ft 203 kts 298°
2026-04-26 10:52 52.72957 -9.08871 6567 ft 214 kts 338°
2026-04-26 10:52 52.74490 -9.08987 6787 ft 235 kts 17°
2026-04-26 10:53 52.76086 -9.08009 6974 ft 257 kts 22°
2026-04-26 10:53 52.77801 -9.06881 7288 ft 276 kts 22°
2026-04-26 10:53 52.79666 -9.05673 7718 ft 294 kts 21°
2026-04-26 10:54 52.83511 -9.03258 9411 ft 299 kts 21°
2026-04-26 10:54 52.85482 -9.02044 10167 ft 304 kts 20°
2026-04-26 10:54 52.87479 -9.00821 10908 ft 308 kts 20°
2026-04-26 10:54 52.89469 -8.99608 11652 ft 311 kts 20°
2026-04-26 10:55 52.91535 -8.98348 12404 ft 314 kts 20°
2026-04-26 10:55 52.93602 -8.97087 13129 ft 318 kts 19°
2026-04-26 10:55 52.95608 -8.95532 13840 ft 323 kts 37°
2026-04-26 10:55 52.97228 -8.92932 14521 ft 325 kts 49°
2026-04-26 10:56 52.98721 -8.90110 15164 ft 328 kts 50°
2026-04-26 10:56 53.00209 -8.87234 15818 ft 332 kts 50°
2026-04-26 10:56 53.01730 -8.84299 16480 ft 336 kts 50°
2026-04-26 10:56 53.03284 -8.81317 17153 ft 339 kts 49°
2026-04-26 10:57 53.04840 -8.78347 17807 ft 343 kts 49°
2026-04-26 10:57 53.06411 -8.75358 18446 ft 346 kts 49°
2026-04-26 10:57 53.08011 -8.72316 19027 ft 350 kts 49°
2026-04-26 10:57 53.09576 -8.69342 19593 ft 352 kts 49°
2026-04-26 10:58 53.11234 -8.66189 20168 ft 356 kts 49°
2026-04-26 10:58 53.12879 -8.63055 20738 ft 359 kts 49°
2026-04-26 10:58 53.14510 -8.59925 21292 ft 362 kts 51°
2026-04-26 10:58 53.15778 -8.56240 21726 ft 368 kts 73°
2026-04-26 10:59 53.16393 -8.52105 21856 ft 382 kts 80°
2026-04-26 10:59 53.16923 -8.47571 21975 ft 398 kts 81°
2026-04-26 10:59 53.17429 -8.42953 22136 ft 411 kts 81°
2026-04-26 10:59 53.17939 -8.38283 22529 ft 417 kts 81°
2026-04-26 11:00 53.18467 -8.33515 23080 ft 420 kts 81°
2026-04-26 11:00 53.19018 -8.28632 23599 ft 423 kts 81°
2026-04-26 11:00 53.19568 -8.23817 24035 ft 426 kts 80°
2026-04-26 11:00 53.20122 -8.18992 24437 ft 429 kts 80°
2026-04-26 11:01 53.20687 -8.14084 24865 ft 431 kts 80°
2026-04-26 11:01 53.21262 -8.09087 25157 ft 437 kts 80°
2026-04-26 11:01 53.21825 -8.04177 25592 ft 438 kts 80°
2026-04-26 11:01 53.22397 -7.99170 26065 ft 439 kts 80°
2026-04-26 11:02 53.22970 -7.94128 26466 ft 442 kts 80°
2026-04-26 11:02 53.23543 -7.89073 26833 ft 444 kts 80°
2026-04-26 11:02 53.24119 -7.83962 27208 ft 447 kts 80°
2026-04-26 11:02 53.24687 -7.78903 27593 ft 449 kts 80°
2026-04-26 11:03 53.25263 -7.73757 27978 ft 452 kts 80°
2026-04-26 11:03 53.25839 -7.68581 28355 ft 454 kts 80°
2026-04-26 11:03 53.26418 -7.63358 28707 ft 456 kts 81°
2026-04-26 11:03 53.26996 -7.58119 29060 ft 459 kts 81°
2026-04-26 11:04 53.27569 -7.52915 29402 ft 461 kts 81°
2026-04-26 11:04 53.28146 -7.47635 29747 ft 463 kts 81°
2026-04-26 11:04 53.28729 -7.42295 30067 ft 465 kts 81°
2026-04-26 11:04 53.29308 -7.36953 30375 ft 467 kts 81°
2026-04-26 11:05 53.29881 -7.31652 30642 ft 469 kts 81°
2026-04-26 11:05 53.30458 -7.26295 30936 ft 469 kts 81°
2026-04-26 11:05 53.31040 -7.20861 31323 ft 468 kts 81°
2026-04-26 11:05 53.31614 -7.15484 31726 ft 466 kts 81°
2026-04-26 11:06 53.32179 -7.10160 32079 ft 465 kts 81°
2026-04-26 11:06 53.32561 -7.06547 32275 ft 465 kts 81°
2026-04-26 11:06 53.33305 -6.99481 32703 ft 465 kts 81°
2026-04-26 11:06 53.33865 -6.94133 33061 ft 463 kts 81°
2026-04-26 11:07 53.34420 -6.88806 33403 ft 463 kts 81°
2026-04-26 11:07 53.34968 -6.83522 33709 ft 463 kts 81°
2026-04-26 11:07 53.35516 -6.78219 34019 ft 462 kts 82°
2026-04-26 11:07 53.36058 -6.72948 34336 ft 461 kts 82°
2026-04-26 11:08 53.36596 -6.67693 34583 ft 461 kts 82°
2026-04-26 11:08 53.36960 -6.64129 34728 ft 461 kts 82°
2026-04-26 11:08 53.37675 -6.57087 35047 ft 460 kts 82°
2026-04-26 11:08 53.38031 -6.53563 35224 ft 460 kts 82°
2026-04-26 11:09 53.39274 -6.41171 35268 ft 465 kts 82°
2026-04-26 11:09 53.40160 -6.32254 35261 ft 461 kts 82°
2026-04-26 11:10 53.41196 -6.21751 35262 ft 457 kts 82°
2026-04-26 11:10 53.42226 -6.11197 35267 ft 457 kts 82°
2026-04-26 11:11 53.43242 -6.00692 35272 ft 457 kts 82°
2026-04-26 11:11 53.44257 -5.90086 35263 ft 457 kts 82°
2026-04-26 11:12 53.45258 -5.79539 35261 ft 458 kts 82°
2026-04-26 11:12 53.46249 -5.68980 35269 ft 459 kts 82°
2026-04-26 11:13 53.47242 -5.58322 35270 ft 460 kts 82°
2026-04-26 11:13 53.47964 -5.47684 35259 ft 459 kts 93°
2026-04-26 11:14 53.47479 -5.37025 35261 ft 458 kts 97°
2026-04-26 11:14 53.46864 -5.26382 35263 ft 458 kts 97°
2026-04-26 11:15 53.46267 -5.15647 35271 ft 459 kts 97°
2026-04-26 11:15 53.45688 -5.04842 35271 ft 459 kts 97°
2026-04-26 11:16 53.45114 -4.94107 35272 ft 460 kts 97°
2026-04-26 11:16 53.44535 -4.83426 35267 ft 459 kts 97°
2026-04-26 11:17 53.43945 -4.72743 35262 ft 459 kts 97°
2026-04-26 11:17 53.43344 -4.62059 35271 ft 459 kts 97°
2026-04-26 11:18 53.42737 -4.51440 35269 ft 459 kts 97°
2026-04-26 11:18 53.42119 -4.40789 35270 ft 458 kts 97°
2026-04-26 11:19 53.41491 -4.30149 35265 ft 458 kts 97°
2026-04-26 11:19 53.40851 -4.19459 35270 ft 458 kts 98°
2026-04-26 11:20 53.40316 -4.10649 35266 ft 458 kts 98°
2026-04-26 11:20 53.39543 -3.98095 35270 ft 458 kts 98°
2026-04-26 11:21 53.38873 -3.87396 35268 ft 458 kts 98°
2026-04-26 11:21 53.38202 -3.76833 35270 ft 458 kts 98°
2026-04-26 11:22 53.37521 -3.66256 35269 ft 459 kts 98°
2026-04-26 11:22 53.36820 -3.55522 35271 ft 459 kts 98°
2026-04-26 11:23 53.36121 -3.44982 35275 ft 459 kts 98°
2026-04-26 11:23 53.35408 -3.34354 35285 ft 460 kts 98°
2026-04-26 11:24 53.34680 -3.23667 35287 ft 460 kts 98°
2026-04-26 11:24 53.33951 -3.13095 35296 ft 460 kts 98°
2026-04-26 11:25 53.33207 -3.02446 35286 ft 461 kts 98°
2026-04-26 11:25 53.32451 -2.91763 35293 ft 461 kts 98°
2026-04-26 11:26 53.31687 -2.81115 35294 ft 461 kts 98°
2026-04-26 11:26 53.30909 -2.70401 35294 ft 461 kts 98°
2026-04-26 11:27 53.30125 -2.59742 35290 ft 461 kts 98°
2026-04-26 11:27 53.29335 -2.49130 35320 ft 461 kts 98°
2026-04-26 11:28 53.28530 -2.38460 35317 ft 461 kts 98°
2026-04-26 11:28 53.27720 -2.27836 35321 ft 461 kts 98°
2026-04-26 11:29 53.27036 -2.18972 35325 ft 461 kts 98°
2026-04-26 11:29 53.26072 -2.06629 35320 ft 460 kts 98°
2026-04-26 11:30 53.25366 -1.97696 35311 ft 461 kts 98°
2026-04-26 11:30 53.24519 -1.87074 35315 ft 460 kts 98°
2026-04-26 11:31 53.23657 -1.76400 35315 ft 460 kts 98°
2026-04-26 11:31 53.22792 -1.65820 35321 ft 460 kts 98°
2026-04-26 11:32 53.21916 -1.55213 35320 ft 460 kts 99°
2026-04-26 11:32 53.21037 -1.44691 35319 ft 459 kts 99°
2026-04-26 11:33 53.20152 -1.34201 35323 ft 459 kts 99°
2026-04-26 11:33 53.19233 -1.23437 35325 ft 459 kts 99°
2026-04-26 11:34 53.18326 -1.12922 35320 ft 459 kts 99°
2026-04-26 11:34 53.17409 -1.02409 35321 ft 460 kts 99°
2026-04-26 11:35 53.16480 -0.91870 35323 ft 460 kts 99°
2026-04-26 11:35 53.15535 -0.81257 35325 ft 460 kts 99°
2026-04-26 11:36 53.14586 -0.70703 35322 ft 460 kts 99°
2026-04-26 11:36 53.13634 -0.60233 35323 ft 460 kts 99°
2026-04-26 11:37 53.12664 -0.49666 35319 ft 461 kts 99°
2026-04-26 11:37 53.11684 -0.39100 35321 ft 461 kts 99°
2026-04-26 11:38 53.10686 -0.28441 35346 ft 461 kts 99°
2026-04-26 11:38 53.09688 -0.17892 35350 ft 461 kts 99°
2026-04-26 11:39 53.08680 -0.07343 35345 ft 462 kts 99°
2026-04-26 11:39 53.07663 0.03202 35339 ft 463 kts 99°
2026-04-26 11:40 53.06631 0.13799 35356 ft 470 kts 99°
2026-04-26 11:40 53.05573 0.24558 35347 ft 472 kts 99°
2026-04-26 11:42 53.01230 0.67684 35348 ft 472 kts 100°
2026-04-26 11:43 53.00125 0.78410 35347 ft 470 kts 100°
2026-04-26 11:43 52.99017 0.89063 35348 ft 469 kts 100°
2026-04-26 11:44 52.97898 0.99740 35353 ft 468 kts 100°
2026-04-26 11:44 52.96713 1.10343 35348 ft 467 kts 101°
2026-04-26 11:45 52.95474 1.20899 35355 ft 466 kts 101°
2026-04-26 11:45 52.94232 1.31453 35352 ft 466 kts 101°
2026-04-26 11:46 52.92989 1.42003 35356 ft 466 kts 101°
2026-04-26 11:46 52.91749 1.52475 35357 ft 466 kts 101°
2026-04-26 11:47 52.90487 1.63045 35358 ft 467 kts 101°
2026-04-26 11:47 52.89215 1.73615 35363 ft 467 kts 101°
2026-04-26 11:48 52.87942 1.84107 35363 ft 468 kts 101°
2026-04-26 11:48 52.86641 1.94752 35367 ft 469 kts 101°
2026-04-26 11:49 52.85334 2.05351 35367 ft 469 kts 101°
2026-04-26 11:49 52.84020 2.15935 35366 ft 470 kts 101°
2026-04-26 11:50 52.82708 2.26419 35369 ft 470 kts 101°
2026-04-26 11:50 52.81372 2.37020 35367 ft 470 kts 101°
2026-04-26 11:51 52.80031 2.47582 35365 ft 470 kts 101°
2026-04-26 11:51 52.78665 2.58235 35365 ft 470 kts 101°
2026-04-26 11:52 52.77527 2.67047 35370 ft 469 kts 101°
2026-04-26 11:52 52.75940 2.79274 35370 ft 469 kts 101°
2026-04-26 11:53 52.74557 2.89827 35369 ft 468 kts 101°
2026-04-26 11:54 52.72495 3.05643 35371 ft 467 kts 101°
2026-04-26 11:54 52.71206 3.16112 35369 ft 467 kts 100°
2026-04-26 11:55 52.69919 3.26584 35370 ft 466 kts 100°
2026-04-26 11:55 52.68608 3.37094 35372 ft 466 kts 101°
2026-04-26 11:56 52.67509 3.45808 35373 ft 465 kts 101°
2026-04-26 11:56 52.65966 3.57929 35371 ft 465 kts 101°
2026-04-26 11:57 52.64849 3.66643 35369 ft 465 kts 101°
2026-04-26 11:57 52.63503 3.77066 35371 ft 464 kts 101°
2026-04-26 11:58 52.62140 3.87550 35366 ft 464 kts 101°
2026-04-26 11:58 52.60793 3.97833 35364 ft 464 kts 101°
2026-04-26 11:59 52.59428 4.08183 35362 ft 463 kts 101°
2026-04-26 11:59 52.58058 4.18487 35359 ft 463 kts 101°
2026-04-26 12:00 52.56669 4.28865 35356 ft 463 kts 101°
2026-04-26 12:00 52.55282 4.39157 35354 ft 462 kts 101°
2026-04-26 12:01 52.53884 4.49454 35342 ft 462 kts 101°
2026-04-26 12:01 52.52476 4.59761 35346 ft 462 kts 102°
2026-04-26 12:02 52.51059 4.70052 35351 ft 461 kts 102°
2026-04-26 12:02 52.49634 4.80331 35347 ft 461 kts 102°
2026-04-26 12:03 52.48208 4.90548 35343 ft 461 kts 102°
2026-04-26 12:03 52.46764 5.00823 35344 ft 461 kts 102°
2026-04-26 12:04 52.45318 5.11044 35342 ft 460 kts 102°
2026-04-26 12:04 52.43856 5.21309 35343 ft 460 kts 102°
2026-04-26 12:05 52.42390 5.31527 35347 ft 459 kts 103°
2026-04-26 12:05 52.40914 5.41756 35349 ft 459 kts 103°
2026-04-26 12:06 52.39433 5.51947 35348 ft 459 kts 103°
2026-04-26 12:06 52.37951 5.62077 35349 ft 458 kts 103°
2026-04-26 12:07 52.36459 5.72208 35343 ft 458 kts 103°
2026-04-26 12:07 52.34945 5.82426 35340 ft 457 kts 103°
2026-04-26 12:08 52.33431 5.92580 35335 ft 457 kts 104°
2026-04-26 12:08 52.31900 6.02782 35326 ft 456 kts 104°
2026-04-26 12:09 52.30382 6.12828 35328 ft 456 kts 104°
2026-04-26 12:09 52.28856 6.22869 35328 ft 456 kts 104°
2026-04-26 12:10 52.27314 6.32947 35328 ft 455 kts 104°
2026-04-26 12:10 52.25772 6.42966 35331 ft 455 kts 104°
2026-04-26 12:11 52.24228 6.52933 35329 ft 455 kts 104°
2026-04-26 12:11 52.22655 6.63028 35324 ft 455 kts 104°
2026-04-26 12:12 52.21091 6.73005 35324 ft 454 kts 104°
2026-04-26 12:12 52.19525 6.82935 35324 ft 454 kts 105°
2026-04-26 12:13 52.17939 6.92937 35327 ft 454 kts 105°
2026-04-26 12:13 52.16339 7.02971 35322 ft 454 kts 105°
2026-04-26 12:14 52.15019 7.13006 35318 ft 454 kts 94°
2026-04-26 12:14 52.15014 7.23380 35320 ft 454 kts 88°
2026-04-26 12:15 52.15171 7.33648 35324 ft 454 kts 88°
2026-04-26 12:15 52.15291 7.43904 35321 ft 454 kts 89°
2026-04-26 12:16 52.15371 7.54212 35321 ft 454 kts 89°
2026-04-26 12:16 52.15430 7.64508 35322 ft 455 kts 89°
2026-04-26 12:17 52.15478 7.74765 35325 ft 455 kts 89°
2026-04-26 12:17 52.15519 7.85164 35322 ft 455 kts 89°
2026-04-26 12:18 52.15551 7.95479 35321 ft 455 kts 90°
2026-04-26 12:18 52.15571 8.04080 35322 ft 455 kts 90°
2026-04-26 12:19 52.15587 8.14526 35324 ft 455 kts 90°
2026-04-26 12:19 52.15593 8.24600 35328 ft 455 kts 90°
2026-04-26 12:20 52.15591 8.34850 35321 ft 455 kts 90°
2026-04-26 12:20 52.15581 8.45143 35325 ft 455 kts 90°
2026-04-26 12:21 52.15560 8.55573 35317 ft 455 kts 90°
2026-04-26 12:21 52.15531 8.65852 35315 ft 455 kts 90°
2026-04-26 12:22 52.15493 8.76138 35325 ft 455 kts 90°
2026-04-26 12:22 52.15446 8.86478 35316 ft 455 kts 90°
2026-04-26 12:23 52.15391 8.96740 35321 ft 455 kts 90°
2026-04-26 12:23 52.15326 9.07053 35320 ft 455 kts 90°
2026-04-26 12:24 52.15252 9.17370 35327 ft 455 kts 91°
2026-04-26 12:24 52.15169 9.27676 35313 ft 455 kts 91°
2026-04-26 12:25 52.15027 9.43142 35319 ft 455 kts 91°
2026-04-26 12:25 52.14921 9.53520 35320 ft 455 kts 91°
2026-04-26 12:26 52.14808 9.63720 35322 ft 456 kts 91°
2026-04-26 12:26 52.14685 9.74010 35323 ft 456 kts 91°
2026-04-26 12:27 52.14551 9.84451 35320 ft 456 kts 91°
2026-04-26 12:27 52.14410 9.94741 35319 ft 457 kts 91°
2026-04-26 12:28 52.14258 10.05131 35313 ft 457 kts 91°
2026-04-26 12:28 52.14098 10.15506 35323 ft 458 kts 91°
2026-04-26 12:29 52.13929 10.25844 35309 ft 458 kts 91°
2026-04-26 12:30 52.13657 10.41418 35315 ft 458 kts 92°
2026-04-26 12:30 52.13465 10.51770 35317 ft 459 kts 92°
2026-04-26 12:31 52.13159 10.67389 35329 ft 459 kts 92°
2026-04-26 12:31 52.12945 10.77805 35308 ft 459 kts 92°
2026-04-26 12:32 52.13158 10.88125 35328 ft 459 kts 82°
2026-04-26 12:33 52.14493 11.03634 35312 ft 459 kts 81°
2026-04-26 12:33 52.15373 11.13922 35312 ft 460 kts 82°
2026-04-26 12:34 52.16213 11.24225 35312 ft 460 kts 82°
2026-04-26 12:34 52.17038 11.34652 35313 ft 461 kts 82°
2026-04-26 12:35 52.17845 11.44995 35312 ft 461 kts 82°
2026-04-26 12:35 52.18646 11.55380 35306 ft 462 kts 82°
2026-04-26 12:36 52.19439 11.65749 35310 ft 462 kts 82°
2026-04-26 12:36 52.20227 11.76193 35307 ft 463 kts 82°
2026-04-26 12:37 52.21009 11.86669 35309 ft 463 kts 82°
2026-04-26 12:37 52.21777 11.97094 35310 ft 464 kts 82°
2026-04-26 12:38 52.22547 12.07680 35309 ft 464 kts 82°
2026-04-26 12:38 52.23297 12.18115 35308 ft 465 kts 82°
2026-04-26 12:39 52.24040 12.28581 35303 ft 465 kts 82°
2026-04-26 12:39 52.24774 12.39063 35304 ft 466 kts 82°
2026-04-26 12:40 52.25502 12.49590 35305 ft 466 kts 82°
2026-04-26 12:40 52.26221 12.60137 35304 ft 467 kts 82°
2026-04-26 12:41 52.26937 12.70776 35306 ft 467 kts 82°
2026-04-26 12:41 52.27524 12.79597 35306 ft 468 kts 82°
2026-04-26 12:42 52.28214 12.90109 35308 ft 468 kts 82°
2026-04-26 12:42 52.28899 13.00705 35308 ft 469 kts 82°
2026-04-26 12:43 52.29575 13.11287 35315 ft 469 kts 82°
2026-04-26 12:43 52.30243 13.21908 35319 ft 469 kts 82°
2026-04-26 12:44 52.30902 13.32550 35321 ft 470 kts 82°
2026-04-26 12:44 52.31547 13.43113 35325 ft 470 kts 82°
2026-04-26 12:45 52.32189 13.53783 35320 ft 470 kts 82°
2026-04-26 12:45 52.32812 13.64311 35319 ft 471 kts 82°
2026-04-26 12:46 52.33445 13.75155 35320 ft 471 kts 82°
2026-04-26 12:46 52.34059 13.85856 35316 ft 471 kts 82°
2026-04-26 12:47 52.34662 13.96529 35315 ft 472 kts 82°
2026-04-26 12:47 52.35258 14.07261 35297 ft 472 kts 82°
2026-04-26 12:48 52.35844 14.17986 35313 ft 472 kts 82°
2026-04-26 12:48 52.36416 14.28644 35303 ft 472 kts 82°
2026-04-26 12:49 52.36989 14.39477 35302 ft 473 kts 82°
2026-04-26 12:49 52.37545 14.50179 35307 ft 473 kts 82°
2026-04-26 12:50 52.38007 14.60954 35299 ft 475 kts 87°
2026-04-26 12:50 52.37803 14.71828 35305 ft 477 kts 90°
2026-04-26 12:51 52.37452 14.82629 35294 ft 477 kts 90°
2026-04-26 12:51 52.37125 14.93467 35298 ft 477 kts 90°
2026-04-26 12:52 52.36829 15.04290 35296 ft 477 kts 89°
2026-04-26 12:52 52.36535 15.15207 35294 ft 477 kts 89°
2026-04-26 12:53 52.36235 15.25971 35294 ft 478 kts 89°
2026-04-26 12:53 52.35920 15.36863 35289 ft 478 kts 89°
2026-04-26 12:54 52.35594 15.47765 35284 ft 478 kts 89°
2026-04-26 12:54 52.35259 15.58623 35279 ft 479 kts 89°
2026-04-26 12:55 52.34916 15.69414 35277 ft 479 kts 89°
2026-04-26 12:55 52.34557 15.80396 35269 ft 480 kts 89°
2026-04-26 12:56 52.34191 15.91264 35271 ft 480 kts 89°
2026-04-26 12:56 52.33813 16.02192 35270 ft 480 kts 89°
2026-04-26 12:57 52.33427 16.13081 35269 ft 481 kts 89°
2026-04-26 12:57 52.33037 16.23789 35272 ft 481 kts 89°
2026-04-26 12:58 52.32413 16.40402 35255 ft 482 kts 89°
2026-04-26 12:58 52.31990 16.51319 35242 ft 478 kts 89°
2026-04-26 12:59 52.31562 16.62015 35240 ft 470 kts 89°
2026-04-26 12:59 52.31131 16.72693 35004 ft 473 kts 89°
2026-04-26 13:00 52.30911 16.78047 34673 ft 469 kts 89°
2026-04-26 13:00 52.30688 16.83372 34311 ft 466 kts 89°
2026-04-26 13:00 52.30464 16.88670 33885 ft 464 kts 89°
2026-04-26 13:00 52.30242 16.93860 33485 ft 461 kts 88°
2026-04-26 13:01 52.30015 16.99116 33085 ft 458 kts 89°
2026-04-26 13:01 52.29789 17.04289 32716 ft 455 kts 88°
2026-04-26 13:01 52.29564 17.09405 32340 ft 453 kts 88°
2026-04-26 13:01 52.29339 17.14482 31973 ft 450 kts 88°
2026-04-26 13:02 52.29109 17.19632 31611 ft 448 kts 88°
2026-04-26 13:02 52.28879 17.24717 31242 ft 446 kts 88°
2026-04-26 13:02 52.28650 17.29741 30889 ft 444 kts 87°
2026-04-26 13:02 52.28420 17.34750 30519 ft 442 kts 87°
2026-04-26 13:03 52.28187 17.39762 30128 ft 440 kts 87°
2026-04-26 13:03 52.27956 17.44690 29710 ft 438 kts 87°
2026-04-26 13:03 52.27720 17.49654 29305 ft 435 kts 87°
2026-04-26 13:03 52.27480 17.54674 28912 ft 432 kts 87°
2026-04-26 13:04 52.27242 17.59598 28526 ft 429 kts 86°
2026-04-26 13:04 52.27007 17.64430 28140 ft 426 kts 86°
2026-04-26 13:04 52.26773 17.69208 27789 ft 423 kts 86°
2026-04-26 13:04 52.26539 17.73940 27424 ft 420 kts 86°
2026-04-26 13:05 52.26300 17.78743 27051 ft 418 kts 86°
2026-04-26 13:05 52.26068 17.83390 26694 ft 415 kts 86°
2026-04-26 13:05 52.25831 17.88098 26339 ft 413 kts 86°
2026-04-26 13:05 52.25593 17.92781 25981 ft 411 kts 85°
2026-04-26 13:06 52.25358 17.97366 25632 ft 408 kts 85°
2026-04-26 13:06 52.25321 18.01913 25288 ft 394 kts 73°
2026-04-26 13:06 52.25640 18.06295 25024 ft 385 kts 71°
2026-04-26 13:06 52.26014 18.10664 24680 ft 383 kts 70°
2026-04-26 13:07 52.26385 18.14851 24351 ft 381 kts 70°
2026-04-26 13:07 52.26765 18.19203 23990 ft 380 kts 70°
2026-04-26 13:07 52.27127 18.23420 23612 ft 379 kts 70°
2026-04-26 13:07 52.27485 18.27710 23218 ft 377 kts 70°
2026-04-26 13:08 52.27832 18.31948 22853 ft 375 kts 70°
2026-04-26 13:08 52.28172 18.36148 22500 ft 372 kts 70°
2026-04-26 13:08 52.28508 18.40340 22145 ft 370 kts 70°
2026-04-26 13:08 52.28840 18.44510 21794 ft 367 kts 70°
2026-04-26 13:09 52.29163 18.48581 21464 ft 365 kts 70°
2026-04-26 13:09 52.29488 18.52700 21126 ft 362 kts 70°
2026-04-26 13:09 52.29703 18.55431 20903 ft 361 kts 70°
2026-04-26 13:09 52.30124 18.60790 20457 ft 358 kts 70°
2026-04-26 13:10 52.30439 18.64827 20121 ft 356 kts 70°
2026-04-26 13:10 52.30749 18.68828 19793 ft 353 kts 70°
2026-04-26 13:10 52.31055 18.72782 19465 ft 352 kts 70°
2026-04-26 13:10 52.31260 18.75439 19247 ft 351 kts 70°
2026-04-26 13:11 52.31563 18.79379 18914 ft 349 kts 70°
2026-04-26 13:11 52.31864 18.83308 18581 ft 348 kts 70°
2026-04-26 13:11 52.32158 18.87208 18201 ft 343 kts 70°
2026-04-26 13:11 52.32451 18.91081 17857 ft 341 kts 70°
2026-04-26 13:12 52.32740 18.94903 17522 ft 339 kts 70°
2026-04-26 13:12 52.33029 18.98756 17191 ft 336 kts 70°
2026-04-26 13:12 52.33309 19.02496 16871 ft 334 kts 70°
2026-04-26 13:12 52.33589 19.06249 16550 ft 331 kts 70°
2026-04-26 13:13 52.33865 19.09975 16254 ft 329 kts 70°
2026-04-26 13:13 52.34141 19.13691 15944 ft 327 kts 70°
2026-04-26 13:13 52.34409 19.17341 15630 ft 325 kts 70°
2026-04-26 13:13 52.34676 19.20993 15324 ft 323 kts 70°
2026-04-26 13:14 52.34926 19.24632 15073 ft 320 kts 72°
2026-04-26 13:14 52.35116 19.28273 14849 ft 316 kts 73°
2026-04-26 13:14 52.35281 19.31808 14645 ft 313 kts 73°
2026-04-26 13:14 52.35450 19.35422 14427 ft 313 kts 73°
2026-04-26 13:15 52.35617 19.38937 14230 ft 313 kts 73°
2026-04-26 13:15 52.35788 19.42495 14022 ft 314 kts 73°
2026-04-26 13:15 52.35961 19.46071 13778 ft 314 kts 74°
2026-04-26 13:15 52.36133 19.49657 13545 ft 313 kts 74°
2026-04-26 13:16 52.36301 19.53181 13326 ft 312 kts 75°
2026-04-26 13:16 52.36469 19.56716 13108 ft 311 kts 75°
2026-04-26 13:16 52.36636 19.60248 12896 ft 309 kts 75°
2026-04-26 13:16 52.36800 19.63726 12687 ft 307 kts 75°
2026-04-26 13:17 52.37119 19.70585 12255 ft 297 kts 76°
2026-04-26 13:17 52.37272 19.73925 12073 ft 292 kts 76°
2026-04-26 13:18 52.37631 19.80395 11687 ft 279 kts 73°
2026-04-26 13:18 52.37878 19.83481 11486 ft 267 kts 72°
2026-04-26 13:18 52.38372 19.89433 11166 ft 262 kts 73°
2026-04-26 13:19 52.38614 19.92375 10990 ft 261 kts 73°
2026-04-26 13:19 52.38853 19.95332 10820 ft 260 kts 73°
2026-04-26 13:19 52.39085 19.98232 10650 ft 260 kts 74°
2026-04-26 13:19 52.39320 20.01195 10461 ft 260 kts 74°
2026-04-26 13:20 52.39549 20.04098 10300 ft 259 kts 75°
2026-04-26 13:20 52.39779 20.07031 10123 ft 260 kts 75°
2026-04-26 13:20 52.40010 20.09993 9924 ft 259 kts 75°
2026-04-26 13:20 52.40236 20.12915 9740 ft 258 kts 75°
2026-04-26 13:21 52.40458 20.15790 9554 ft 256 kts 75°
2026-04-26 13:21 52.40633 20.17717 9439 ft 252 kts 67°
2026-04-26 13:21 52.41805 20.20715 9257 ft 227 kts 32°
2026-04-26 13:21 52.43103 20.22122 9092 ft 221 kts 22°
2026-04-26 13:22 52.44442 20.23333 8942 ft 220 kts 22°
2026-04-26 13:22 52.45779 20.24537 8786 ft 219 kts 22°
2026-04-26 13:22 52.47101 20.25743 8639 ft 219 kts 22°
2026-04-26 13:22 52.48437 20.26972 8493 ft 219 kts 23°
2026-04-26 13:23 52.49660 20.28524 8318 ft 231 kts 46°
2026-04-26 13:23 52.50336 20.30957 8179 ft 243 kts 68°
2026-04-26 13:23 52.50658 20.33715 8028 ft 246 kts 73°
2026-04-26 13:23 52.50912 20.36541 7732 ft 253 kts 74°
2026-04-26 13:24 52.51159 20.39390 7551 ft 254 kts 75°
2026-04-26 13:24 52.51414 20.42269 7354 ft 251 kts 74°
2026-04-26 13:24 52.51669 20.45096 7170 ft 247 kts 74°
2026-04-26 13:24 52.51923 20.47849 7000 ft 244 kts 74°
2026-04-26 13:25 52.52179 20.50587 6849 ft 245 kts 74°
2026-04-26 13:25 52.52441 20.53343 6687 ft 245 kts 74°
2026-04-26 13:25 52.52708 20.56167 6519 ft 246 kts 74°
2026-04-26 13:25 52.52969 20.58941 6347 ft 247 kts 74°
2026-04-26 13:26 52.53233 20.61725 6185 ft 247 kts 74°
2026-04-26 13:26 52.53494 20.64506 6007 ft 247 kts 74°
2026-04-26 13:26 52.53755 20.67325 5838 ft 247 kts 74°
2026-04-26 13:26 52.54013 20.70098 5674 ft 247 kts 75°
2026-04-26 13:27 52.54270 20.72885 5514 ft 246 kts 74°
2026-04-26 13:27 52.54525 20.75640 5355 ft 246 kts 74°
2026-04-26 13:27 52.54785 20.78455 5182 ft 245 kts 74°
2026-04-26 13:27 52.55037 20.81183 5018 ft 244 kts 75°
2026-04-26 13:28 52.55293 20.83963 4859 ft 244 kts 75°
2026-04-26 13:28 52.55543 20.86697 4683 ft 243 kts 74°
2026-04-26 13:28 52.55793 20.89434 4527 ft 242 kts 75°
2026-04-26 13:28 52.55709 20.92228 4322 ft 253 kts 105°
2026-04-26 13:29 52.54717 20.94529 4180 ft 245 kts 143°
2026-04-26 13:29 52.53731 20.95341 4043 ft 235 kts 166°
2026-04-26 13:29 52.51648 20.95999 3872 ft 224 kts 175°
2026-04-26 13:29 52.50129 20.96254 3694 ft 209 kts 191°
2026-04-26 13:30 52.48869 20.95500 3637 ft 185 kts 225°
2026-04-26 13:30 52.48037 20.94011 3486 ft 174 kts 250°
2026-04-26 13:30 52.47653 20.92235 3368 ft 161 kts 268°
2026-04-26 13:30 52.47471 20.90454 3264 ft 155 kts 270°
2026-04-26 13:31 52.47306 20.88710 3166 ft 154 kts 270°
2026-04-26 13:31 52.47146 20.86997 3048 ft 150 kts 270°
2026-04-26 13:31 52.46991 20.85307 2873 ft 149 kts 271°
2026-04-26 13:31 52.46838 20.83686 2649 ft 142 kts 272°
2026-04-26 13:32 52.46693 20.82097 2445 ft 139 kts 271°
2026-04-26 13:32 52.46550 20.80553 2231 ft 137 kts 272°
2026-04-26 13:32 52.46405 20.79014 2033 ft 139 kts 271°
2026-04-26 13:32 52.46262 20.77428 1823 ft 142 kts 271°
2026-04-26 13:33 52.46114 20.75836 1589 ft 140 kts 271°
2026-04-26 13:33 52.45967 20.74259 1342 ft 136 kts 271°
2026-04-26 13:33 52.45835 20.72748 1117 ft 135 kts 271°
2026-04-26 13:33 52.45687 20.71168 967 ft 144 kts 266°
2026-04-26 13:34 52.45512 20.69553 745 ft 145 kts 268°
2026-04-26 13:34 52.45365 20.67931 518 ft 144 kts 269°
2026-04-26 13:34 52.45213 20.66327 349 ft 145 kts 271°
2026-04-26 13:34 52.45142 20.65319 349 ft 109 kts 261°
2026-04-26 13:35 52.45025 20.64148 350 ft 58 kts 262°
2026-04-26 13:35 52.44969 20.63587 348 ft 37 kts 262°
2026-04-26 13:35 52.44861 20.63400 351 ft 24 kts 171°
2026-04-26 13:35 52.44741 20.63427 357 ft 15 kts 173°
2026-04-26 13:36 52.44728 20.63430 354 ft 0 kts 173°
2026-04-26 13:36 52.44724 20.63431 352 ft 2 kts 173°
2026-04-26 13:37 52.44693 20.63438 352 ft 8 kts 171°
2026-04-26 13:37 52.44634 20.63487 354 ft 12 kts 117°
2026-04-26 13:37 52.44637 20.63648 352 ft 17 kts 80°
2026-04-26 13:37 52.44658 20.63871 351 ft 23 kts 82°
2026-04-26 13:38 52.44684 20.64155 349 ft 28 kts 81°
2026-04-26 13:38 52.44718 20.64494 349 ft 32 kts 81°
2026-04-26 13:38 52.44753 20.64858 353 ft 30 kts 81°
2026-04-26 13:38 52.44714 20.64983 351 ft 0 kts 175°